Location: Unspecified
(0.0000°N, 0.0000°E)
Time: 09:29:36
(UTC+00:00)

ATLAS 5 CENTAUR DEB - Pass Details

Date: 08 December 2025
Orbit: 8829 x 35105 km, 13.2° (Epoch: 17 January)

Event Time Altitude Azimuth Distance (km) Brightness Sun altitude
Rises 15:33:56 0° 269° (W) 22,325 ? 31.5°
Reaches altitude 10° 16:03:01 10° 264° (W) 17,690 ? 25.0°
Maximum altitude 17:10:00 68° 176° (S) 9,110 ? 9.7°
Drops below altitude 10° 18:25:08 10° 89° (E) 19,271 ? -7.6°
Sets 19:05:33 0° 84° (E) 25,223 ? -16.9°
